User: anonymous   Login
Location: Salamanca
(40.9670°N, 5.6500°W)
Time: 19:42:26
(UTC+01:00)
Language:

Cosmos 1633 Rocket - Orbit

View from above orbital plane
View from above orbital plane
View from above satellite
View from above satellite

Ground track
Ground track

The orbit data is extracted from the following two-line orbital elements,

1 15593U 85020B   14327.16815382  .00000527  00000-0  60699-4 0  8233
2 15593 082.5395 059.2978 0010567 249.8646 154.2934 14.83838390605393
Epoch (UTC): 23 November 2014 04:02:08
Eccentricity: 0.0010567
inclination: 82.5395°
perigee height: 610 km
apogee height: 624 km
right ascension of ascending node: 59.2978°
argument of perigee: 249.8646°
revolutions per day: 14.83838390
mean anomaly at epoch: 154.2934°
orbit number at epoch: 60539

The dashed part of the orbit path shows where the satellite is in the earth's shadow,  

DLR